TimeEDT,TemperatureF,Dew PointF,Humidity,Sea Level PressureIn,VisibilityMPH,Wind Direction,Wind SpeedMPH,Gust SpeedMPH,PrecipitationIn,Events,Conditions,WindDirDegrees,DateUTC
12:54 AM,66.9,64.9,93,30.05,10.0,Calm,Calm,-,N/A,,Clear,0,2013-06-26 04:54:00
1:54 AM,66.0,64.0,93,30.04,10.0,Calm,Calm,-,N/A,,Clear,0,2013-06-26 05:54:00
2:54 AM,64.0,63.0,96,30.02,5.0,Calm,Calm,-,N/A,,Scattered Clouds,0,2013-06-26 06:54:00
3:06 AM,64.4,64.4,100,30.09,4.0,Calm,Calm,-,N/A,,Mostly Cloudy,0,2013-06-26 07:06:00
3:08 AM,64.4,64.4,100,30.09,1.5,South,3.5,-,N/A,,Mostly Cloudy,180,2013-06-26 07:08:00
3:15 AM,64.4,64.4,100,30.09,1.2,Calm,Calm,-,N/A,,Overcast,0,2013-06-26 07:15:00
3:18 AM,64.4,64.4,100,30.08,3.0,Calm,Calm,-,N/A,,Overcast,0,2013-06-26 07:18:00
3:45 AM,64.4,64.4,100,30.09,1.8,Calm,Calm,-,N/A,,Overcast,0,2013-06-26 07:45:00
3:54 AM,64.0,64.0,100,30.01,1.0,Calm,Calm,-,N/A,,Overcast,0,2013-06-26 07:54:00
4:18 AM,64.4,64.4,100,30.09,2.0,Calm,Calm,-,N/A,,Overcast,0,2013-06-26 08:18:00
4:23 AM,64.4,64.4,100,30.09,1.2,Calm,Calm,-,N/A,,Overcast,0,2013-06-26 08:23:00
4:33 AM,64.4,64.4,100,30.09,0.8,Calm,Calm,-,N/A,,Mist,0,2013-06-26 08:33:00
4:40 AM,64.4,64.4,100,30.09,1.5,Calm,Calm,-,N/A,,Overcast,0,2013-06-26 08:40:00
4:54 AM,64.0,64.0,100,30.02,1.5,NNW,3.5,-,N/A,,Overcast,330,2013-06-26 08:54:00
5:05 AM,64.4,64.4,100,30.10,0.8,NW,3.5,-,N/A,,Overcast,310,2013-06-26 09:05:00
5:34 AM,64.4,62.6,94,30.11,1.5,Calm,Calm,-,N/A,,Overcast,0,2013-06-26 09:34:00
5:37 AM,64.4,64.4,100,30.11,3.0,Calm,Calm,-,N/A,,Overcast,0,2013-06-26 09:37:00
5:51 AM,64.4,64.4,100,30.11,1.8,NW,4.6,-,N/A,,Overcast,320,2013-06-26 09:51:00
5:54 AM,64.0,64.0,100,30.05,1.5,Calm,Calm,-,N/A,,Overcast,0,2013-06-26 09:54:00
6:13 AM,64.4,62.6,94,30.12,3.0,NNW,4.6,-,N/A,,Overcast,330,2013-06-26 10:13:00
6:39 AM,64.4,64.4,100,30.13,1.5,NNW,9.2,-,N/A,,Overcast,340,2013-06-26 10:39:00
6:41 AM,64.4,64.4,100,30.13,0.8,NNW,8.1,-,N/A,,Overcast,340,2013-06-26 10:41:00
6:50 AM,64.4,64.4,100,30.13,0.2,NNW,6.9,-,N/A,Fog,Fog,340,2013-06-26 10:50:00
6:54 AM,64.0,64.0,100,30.06,0.2,NNW,5.8,-,N/A,Fog,Fog,330,2013-06-26 10:54:00
7:07 AM,64.4,64.4,100,30.13,0.5,NNW,4.6,-,N/A,Fog,Fog,330,2013-06-26 11:07:00
7:17 AM,64.4,64.4,100,30.13,1.5,WNW,4.6,-,N/A,,Overcast,290,2013-06-26 11:17:00
7:24 AM,64.4,64.4,100,30.13,0.8,Calm,Calm,-,N/A,,Overcast,0,2013-06-26 11:24:00
7:35 AM,64.4,64.4,100,30.13,0.2,Calm,Calm,-,N/A,Fog,Fog,0,2013-06-26 11:35:00
7:51 AM,64.4,64.4,100,30.13,1.0,Calm,Calm,-,N/A,,Overcast,0,2013-06-26 11:51:00
7:52 AM,64.9,64.9,100,30.07,1.0,Calm,Calm,-,N/A,,Overcast,0,2013-06-26 11:52:00
7:56 AM,64.4,64.4,100,30.14,2.0,Calm,Calm,-,N/A,,Overcast,0,2013-06-26 11:56:00
8:04 AM,64.4,64.4,100,30.14,3.0,Calm,Calm,-,N/A,,Overcast,0,2013-06-26 12:04:00
8:54 AM,66.9,66.0,97,30.07,5.0,Calm,Calm,-,N/A,,Mostly Cloudy,0,2013-06-26 12:54:00
9:08 AM,69.8,66.2,88,30.14,7.0,Calm,Calm,-,N/A,,Scattered Clouds,0,2013-06-26 13:08:00
9:54 AM,75.0,66.9,76,30.04,10.0,Variable,3.5,-,N/A,,Clear,0,2013-06-26 13:54:00
10:54 AM,78.1,66.0,66,30.03,10.0,North,4.6,-,N/A,,Clear,350,2013-06-26 14:54:00
11:54 AM,79.0,66.9,66,30.03,10.0,South,4.6,-,N/A,,Scattered Clouds,190,2013-06-26 15:54:00
12:40 PM,78.8,66.2,65,30.10,5.0,West,5.8,-,N/A,Thunderstorm,Unknown,280,2013-06-26 16:40:00
12:54 PM,73.9,70.0,87,30.04,7.0,SSE,13.8,19.6,0.02,Rain-Thunderstorm,Light Thunderstorms and Rain,160,2013-06-26 16:54:00
1:30 PM,78.8,69.8,74,30.10,10.0,South,4.6,-,0.01,,Clear,190,2013-06-26 17:30:00
1:54 PM,80.1,66.9,64,30.01,10.0,SSW,4.6,-,0.01,,Scattered Clouds,210,2013-06-26 17:54:00
2:54 PM,84.9,69.1,59,29.98,10.0,Calm,Calm,-,N/A,,Partly Cloudy,0,2013-06-26 18:54:00
3:54 PM,82.0,69.1,65,29.96,10.0,South,5.8,-,N/A,,Clear,190,2013-06-26 19:54:00
4:18 PM,80.6,68.0,65,30.03,10.0,South,6.9,-,N/A,Thunderstorm,Partly Cloudy,180,2013-06-26 20:18:00
4:41 PM,73.4,69.8,88,30.06,1.5,North,15.0,25.3,0.03,Rain-Thunderstorm,Heavy Thunderstorms and Rain,10,2013-06-26 20:41:00
4:43 PM,73.4,68.0,83,30.07,0.8,North,9.2,25.3,0.13,Rain-Thunderstorm,Heavy Thunderstorms and Rain,360,2013-06-26 20:43:00
4:51 PM,71.6,68.0,88,30.04,0.2,ESE,9.2,19.6,0.73,Fog-Rain-Thunderstorm,Thunderstorms and Rain,120,2013-06-26 20:51:00
4:54 PM,73.0,66.9,81,29.98,0.5,Variable,3.5,19.6,0.79,Rain-Thunderstorm,Light Thunderstorms and Rain,0,2013-06-26 20:54:00
4:57 PM,71.6,68.0,88,30.04,2.5,Variable,3.5,-,0.00,Rain-Thunderstorm,Light Thunderstorms and Rain,0,2013-06-26 20:57:00
5:04 PM,73.4,66.2,78,30.03,10.0,Calm,Calm,-,0.00,Thunderstorm,Thunderstorm,0,2013-06-26 21:04:00
5:10 PM,73.4,66.2,78,30.02,10.0,ESE,5.8,-,0.00,,Partly Cloudy,120,2013-06-26 21:10:00
5:54 PM,73.0,66.9,81,29.96,10.0,Calm,Calm,-,0.00,,Mostly Cloudy,0,2013-06-26 21:54:00
6:54 PM,75.0,69.1,82,29.96,10.0,Calm,Calm,-,N/A,,Clear,0,2013-06-26 22:54:00
7:54 PM,73.9,70.0,87,29.95,10.0,Calm,Calm,-,N/A,,Clear,0,2013-06-26 23:54:00
8:54 PM,73.0,70.0,90,29.94,10.0,SSW,3.5,-,N/A,,Clear,200,2013-06-27 00:54:00
9:54 PM,71.1,69.1,93,29.95,9.0,Calm,Calm,-,N/A,,Clear,0,2013-06-27 01:54:00
10:54 PM,70.0,68.0,93,29.95,10.0,SE,3.5,-,N/A,,Clear,130,2013-06-27 02:54:00
11:54 PM,70.0,68.0,93,29.96,10.0,SE,4.6,-,N/A,,Clear,140,2013-06-27 03:54:00